Weather History for Kankakee, IL

Change the Weather History Date:

Monday, April 29, 2013

  Actual Average Record
Temperature  
Mean Temperature 58 °F -  
Max Temperature 71 °F 66 °F 80 °F (2007)
Min Temperature 46 °F 41 °F 30 °F (1992)
Degree Days  
Heating Degree Days 6    
Growing Degree Days 8 (Base 50)    
Moisture  
Dew Point 52 °F    
Average Humidity 77    
Maximum Humidity 99    
Minimum Humidity 53    
Precipitation  
Precipitation 0.00 in - - ()
Sea Level Pressure  
Sea Level Pressure 29.89 in    
Wind  
Wind Speed 8 mph (South)    
Max Wind Speed 18 mph    
Max Gust Speed 26 mph    
Visibility 8 miles    
Events      
Averages and records for this station are not official NWS values.
T = Trace of Precipitation, MM = Missing Value Source: NWS Daily Summary

Daily Weather History Graph

Daily Weather History Graph

Search for Another Location

Airport:

Trip Planner

Search our weather history database for the weather conditions in past years. The results will help you decide how hot, cold, wet, or windy it might be!

Date:

Astronomy

Apr. 29, 2013 Rise Set
Actual Time 5:51 AM CDT 7:46 PM CDT
Civil Twilight 5:21 AM CDT 8:16 PM CDT
Nautical Twilight 4:45 AM CDT 8:52 PM CDT
Astronomical Twilight 4:06 AM CDT 9:32 PM CDT
Moon No Moon Rise 9:11 AM CDT (4/29)
Length of Visible Light 14h 54m
Length of Day
13h 54m
Waning Gibbous, 80% of the Moon is Illuminated
Apr 29
Waning Gibbous
May 2
Last Quarter
May 9
New
May 17
First Quarter
May 24
Full

Hourly Weather History & Observations

Time (CDT) Temp. Windchill Dew Point Humidity Pressure Visibility Wind Dir Wind Speed Gust Speed Precip Events Conditions
12:15 AM 53.8 °F - 52.7 °F 96% 29.89 in 7.0 mi SSW 5.8 mph - N/A   Clear
12:35 AM 52.9 °F - 51.8 °F 96% 29.89 in 7.0 mi SW 6.9 mph - N/A   Clear
12:55 AM 52.0 °F - 51.1 °F 97% 29.89 in 5.0 mi SSW 6.9 mph - N/A   Clear
1:15 AM 51.4 °F - 50.9 °F 98% 29.89 in 5.0 mi SW 5.8 mph - N/A   Clear
1:35 AM 51.4 °F - 50.9 °F 98% 29.89 in 5.0 mi WSW 6.9 mph - N/A   Clear
1:55 AM 50.7 °F - 50.0 °F 97% 29.89 in 5.0 mi WSW 4.6 mph - N/A   Clear
2:15 AM 50.4 °F - 49.6 °F 97% 29.89 in 5.0 mi WSW 5.8 mph - N/A   Clear
2:35 AM 50.0 °F - 49.3 °F 97% 29.89 in 5.0 mi West 3.5 mph - N/A   Clear
2:55 AM 49.1 °F - 48.4 °F 97% 29.89 in 4.0 mi WSW 3.5 mph - N/A   Clear
3:15 AM 48.6 °F - 48.2 °F 99% 29.89 in 4.0 mi SW 3.5 mph - N/A   Clear
3:35 AM 48.4 °F - 48.2 °F 99% 29.89 in 4.0 mi SW 4.6 mph - N/A   Clear
3:55 AM 46.8 °F - 46.4 °F 99% 29.91 in 4.0 mi SW 5.8 mph - N/A   Clear
4:15 AM 48.0 °F - 47.3 °F 97% 29.91 in 7.0 mi WSW 5.8 mph - N/A   Clear
4:35 AM 48.2 °F - 47.1 °F 96% 29.91 in 7.0 mi WSW 4.6 mph - N/A   Clear
4:55 AM 47.5 °F - 46.8 °F 97% 29.92 in 7.0 mi SW 5.8 mph - N/A   Clear
5:15 AM 47.3 °F - 46.6 °F 97% 29.92 in 7.0 mi SSW 5.8 mph - N/A   Clear
5:35 AM 46.2 °F 42.7 °F 45.7 °F 98% 29.93 in 4.0 mi SSW 6.9 mph - N/A   Clear
5:55 AM 46.0 °F 43.9 °F 45.7 °F 99% 29.93 in 3.0 mi SW 4.6 mph - N/A   Scattered Clouds
6:15 AM 46.4 °F 45.2 °F 45.9 °F 98% 29.93 in 3.0 mi SSW 3.5 mph - N/A   Scattered Clouds
6:35 AM 46.4 °F - 46.0 °F 99% 29.94 in 2.5 mi Calm Calm - N/A   Clear
6:55 AM 46.8 °F - 46.6 °F 99% 29.95 in 2.0 mi SW 3.5 mph - N/A   Clear
7:15 AM 48.9 °F - 48.0 °F 97% 29.95 in 3.0 mi SSW 4.6 mph - N/A   Clear
7:35 AM 50.7 °F - 48.9 °F 94% 29.95 in 5.0 mi SSW 3.5 mph - N/A   Clear
7:55 AM 52.2 °F - 49.6 °F 91% 29.95 in 7.0 mi SSW 4.6 mph - N/A   Clear
8:15 AM 53.6 °F - 50.4 °F 89% 29.95 in 10.0 mi SW 4.6 mph - N/A   Clear
8:35 AM 54.3 °F - 50.9 °F 88% 29.96 in 10.0 mi SSW 6.9 mph - N/A   Clear
8:55 AM 55.9 °F - 51.3 °F 84% 29.95 in 10.0 mi SSW 5.8 mph - N/A   Clear
9:15 AM 57.4 °F - 52.2 °F 83% 29.94 in 10.0 mi South 6.9 mph - N/A   Clear
9:35 AM 59.0 °F - 52.7 °F 80% 29.94 in 10.0 mi South 8.1 mph - N/A   Clear
9:55 AM 61.2 °F - 53.8 °F 77% 29.95 in 10.0 mi SSW 6.9 mph - N/A   Clear
10:15 AM 62.1 °F - 54.0 °F 75% 29.95 in 10.0 mi South 8.1 mph - N/A   Clear
10:35 AM 62.8 °F - 53.8 °F 72% 29.95 in 10.0 mi SW 9.2 mph - N/A   Clear
10:55 AM 64.2 °F - 54.5 °F 71% 29.94 in 10.0 mi South 8.1 mph - N/A   Clear
11:15 AM 65.1 °F - 54.5 °F 68% 29.92 in 10.0 mi South 13.8 mph 17.3 mph N/A   Clear
11:35 AM 66.2 °F - 54.9 °F 67% 29.92 in 10.0 mi SSE 9.2 mph - N/A   Clear
11:55 AM 66.6 °F - 54.3 °F 65% 29.92 in 10.0 mi South 13.8 mph 17.3 mph N/A   Clear
12:15 PM 67.3 °F - 53.4 °F 61% 29.91 in 10.0 mi SSE 16.1 mph 23.0 mph N/A   Scattered Clouds
12:35 PM 67.8 °F - 53.6 °F 60% 29.91 in 10.0 mi South 15.0 mph 19.6 mph N/A   Scattered Clouds
12:55 PM 68.2 °F - 53.6 °F 60% 29.90 in 10.0 mi South 15.0 mph 20.7 mph N/A   Clear
1:15 PM 68.7 °F - 54.7 °F 61% 29.90 in 10.0 mi South 15.0 mph 19.6 mph N/A   Clear
1:35 PM 68.7 °F - 54.0 °F 59% 29.90 in 10.0 mi SSE 12.7 mph - N/A   Scattered Clouds
1:55 PM 69.3 °F - 54.5 °F 59% 29.88 in 10.0 mi SSE 15.0 mph 20.7 mph N/A   Clear
2:15 PM 70.0 °F - 55.0 °F 59% 29.88 in 10.0 mi South 18.4 mph 23.0 mph N/A   Clear
2:35 PM 70.5 °F - 54.0 °F 56% 29.87 in 10.0 mi South 12.7 mph 20.7 mph N/A   Clear
2:55 PM 70.7 °F - 55.4 °F 58% 29.86 in 10.0 mi South 13.8 mph - N/A   Clear
3:15 PM 71.6 °F - 54.9 °F 55% 29.86 in 10.0 mi South 15.0 mph 20.7 mph N/A   Clear
3:35 PM 71.2 °F - 53.8 °F 54% 29.85 in 10.0 mi SSE 12.7 mph 19.6 mph N/A   Clear
3:55 PM 71.1 °F - 53.8 °F 54% 29.84 in 10.0 mi SSE 15.0 mph 20.7 mph N/A   Clear
4:15 PM 70.9 °F - 53.2 °F 54% 29.84 in 10.0 mi South 16.1 mph 21.9 mph N/A   Clear
4:35 PM 71.6 °F - 53.8 °F 53% 29.83 in 10.0 mi South 16.1 mph - N/A   Clear
4:55 PM 70.3 °F - 53.1 °F 54% 29.83 in 10.0 mi SSE 18.4 mph 24.2 mph N/A   Clear
5:15 PM 70.0 °F - 52.7 °F 54% 29.83 in 10.0 mi South 18.4 mph 21.9 mph N/A   Clear
5:35 PM 69.8 °F - 52.9 °F 55% 29.83 in 10.0 mi South 16.1 mph 24.2 mph N/A   Clear
5:55 PM 69.6 °F - 52.7 °F 55% 29.82 in 10.0 mi SSE 16.1 mph 20.7 mph N/A   Clear
6:15 PM 69.3 °F - 53.4 °F 57% 29.82 in 10.0 mi SSE 15.0 mph 26.5 mph N/A   Clear
6:35 PM 68.4 °F - 54.0 °F 60% 29.82 in 10.0 mi South 16.1 mph 21.9 mph N/A   Clear
6:55 PM 68.0 °F - 54.1 °F 61% 29.82 in 10.0 mi SSE 12.7 mph 18.4 mph N/A   Clear
7:15 PM 67.1 °F - 53.6 °F 62% 29.82 in 10.0 mi SSE 13.8 mph 21.9 mph N/A   Clear
7:35 PM 66.4 °F - 53.2 °F 63% 29.82 in 10.0 mi SSE 12.7 mph 18.4 mph N/A   Clear
7:55 PM 65.7 °F - 53.2 °F 64% 29.83 in 10.0 mi SSE 9.2 mph - N/A   Clear
8:15 PM 64.9 °F - 54.5 °F 69% 29.84 in 10.0 mi SSE 10.4 mph - N/A   Clear
8:35 PM 63.5 °F - 54.5 °F 72% 29.84 in 10.0 mi SE 8.1 mph - N/A   Clear
8:55 PM 62.2 °F - 54.5 °F 76% 29.85 in 10.0 mi SE 8.1 mph - N/A   Clear
9:15 PM 61.9 °F - 54.3 °F 76% 29.85 in 10.0 mi SSE 9.2 mph - N/A   Clear
9:35 PM 61.9 °F - 54.0 °F 75% 29.85 in 10.0 mi SE 8.1 mph - N/A   Clear
9:55 PM 61.7 °F - 53.6 °F 75% 29.85 in 10.0 mi SSE 10.4 mph - N/A   Clear
10:15 PM 62.6 °F - 53.6 °F 72% 29.85 in 10.0 mi SSE 10.4 mph - N/A   Clear
10:35 PM 61.7 °F - 52.3 °F 71% 29.85 in 10.0 mi SSE 10.4 mph - N/A   Clear
10:55 PM 61.5 °F - 51.8 °F 70% 29.85 in 10.0 mi SSE 10.4 mph - N/A   Clear
11:15 PM 60.8 °F - 51.4 °F 71% 29.84 in 10.0 mi SSE 12.7 mph 17.3 mph N/A   Clear
11:35 PM 60.4 °F - 51.3 °F 72% 29.84 in 10.0 mi SE 9.2 mph - N/A   Clear
11:55 PM 60.3 °F - 51.1 °F 72% 29.84 in 10.0 mi SSE 11.5 mph - N/A   Clear